Time,TemperatureF,DewpointF,PressureIn,WindDirection,WindDirectionDegrees,WindSpeedMPH,WindSpeedGustMPH,Humidity,HourlyPrecipIn,Conditions,Clouds,dailyrainin,SoftwareType,DateUTC
2013-08-23 00:05:00,58.8,54.0,29.85,SSW,192,7.0,10.0,83,0.00,,,0.00,weatherlink.com 1.10,2013-08-23 07:05:00,
2013-08-23 00:20:00,58.0,54.0,29.86,SW,224,7.0,12.0,85,0.00,,,0.00,weatherlink.com 1.10,2013-08-23 07:20:00,
2013-08-23 00:35:00,58.5,54.0,29.86,West,265,1.0,9.0,85,0.00,,,0.00,weatherlink.com 1.10,2013-08-23 07:35:00,
2013-08-23 00:50:00,58.5,54.0,29.86,SSW,213,5.0,9.0,85,0.00,,,0.00,weatherlink.com 1.10,2013-08-23 07:50:00,
2013-08-23 01:05:00,58.0,54.0,29.86,SSW,194,5.0,14.0,86,0.00,,,0.00,weatherlink.com 1.10,2013-08-23 08:05:00,
2013-08-23 01:20:00,57.4,54.0,29.86,SSE,159,5.0,11.0,88,0.00,,,0.00,weatherlink.com 1.10,2013-08-23 08:20:00,
2013-08-23 01:35:00,57.1,54.0,29.86,SSW,210,6.0,10.0,89,0.00,,,0.00,weatherlink.com 1.10,2013-08-23 08:35:00,
2013-08-23 01:50:00,57.3,54.0,29.86,SSE,152,6.0,10.0,89,0.00,,,0.00,weatherlink.com 1.10,2013-08-23 08:50:00,
2013-08-23 02:05:00,57.1,54.0,29.86,WSW,238,3.0,11.0,90,0.00,,,0.00,weatherlink.com 1.10,2013-08-23 09:05:00,
2013-08-23 02:20:00,57.1,55.0,29.86,SW,227,5.0,9.0,91,0.00,,,0.00,weatherlink.com 1.10,2013-08-23 09:20:00,
2013-08-23 02:35:00,57.1,55.0,29.87,SSW,211,4.0,9.0,91,0.00,,,0.00,weatherlink.com 1.10,2013-08-23 09:35:00,
2013-08-23 02:50:00,57.8,55.0,29.87,South,182,9.0,11.0,90,0.00,,,0.00,weatherlink.com 1.10,2013-08-23 09:50:00,
2013-08-23 03:05:00,58.2,55.0,29.87,SSE,159,8.0,11.0,89,0.00,,,0.00,weatherlink.com 1.10,2013-08-23 10:05:00,
2013-08-23 03:20:00,57.7,55.0,29.87,SW,214,7.0,12.0,90,0.00,,,0.00,weatherlink.com 1.10,2013-08-23 10:20:00,
2013-08-23 03:35:00,58.1,55.0,29.87,South,185,3.0,12.0,90,0.00,,,0.00,weatherlink.com 1.10,2013-08-23 10:35:00,
2013-08-23 03:50:00,58.3,56.0,29.88,SW,219,7.0,13.0,90,0.00,,,0.00,weatherlink.com 1.10,2013-08-23 10:50:00,
2013-08-23 04:05:00,57.7,55.0,29.88,SSE,164,4.0,11.0,92,0.00,,,0.00,weatherlink.com 1.10,2013-08-23 11:05:00,
2013-08-23 04:20:00,57.7,55.0,29.88,SSW,194,4.0,14.0,92,0.00,,,0.00,weatherlink.com 1.10,2013-08-23 11:20:00,
2013-08-23 04:35:00,57.5,55.0,29.88,South,175,7.0,7.0,92,0.00,,,0.00,weatherlink.com 1.10,2013-08-23 11:35:00,
2013-08-23 04:50:00,57.4,55.0,29.88,WSW,242,5.0,11.0,93,0.00,,,0.00,weatherlink.com 1.10,2013-08-23 11:50:00,
2013-08-23 05:05:00,57.5,56.0,29.88,SW,234,6.0,10.0,93,0.00,,,0.00,weatherlink.com 1.10,2013-08-23 12:05:00,
2013-08-23 05:20:00,57.5,56.0,29.88,SW,229,7.0,9.0,93,0.00,,,0.00,weatherlink.com 1.10,2013-08-23 12:20:00,
2013-08-23 05:35:00,57.3,56.0,29.88,SSW,205,3.0,13.0,94,0.00,,,0.00,weatherlink.com 1.10,2013-08-23 12:35:00,
2013-08-23 05:50:00,57.0,55.0,29.88,SSW,210,2.0,10.0,94,0.00,,,0.00,weatherlink.com 1.10,2013-08-23 12:50:00,
2013-08-23 06:05:00,56.9,56.0,29.88,SSW,198,2.0,8.0,95,0.00,,,0.00,weatherlink.com 1.10,2013-08-23 13:05:00,
2013-08-23 06:20:00,56.8,55.0,29.88,SSW,205,4.0,10.0,95,0.00,,,0.00,weatherlink.com 1.10,2013-08-23 13:20:00,
2013-08-23 06:35:00,56.8,55.0,29.88,SSW,197,3.0,7.0,95,0.00,,,0.00,weatherlink.com 1.10,2013-08-23 13:35:00,
2013-08-23 06:50:00,57.1,56.0,29.88,SSW,209,2.0,8.0,96,0.00,,,0.00,weatherlink.com 1.10,2013-08-23 13:50:00,
2013-08-23 07:06:00,57.6,56.0,29.88,SW,229,0.0,13.0,95,0.00,,,0.00,weatherlink.com 1.10,2013-08-23 14:06:00,
2013-08-23 07:21:00,58.1,56.0,29.89,WSW,247,5.0,9.0,94,0.00,,,0.00,weatherlink.com 1.10,2013-08-23 14:21:00,
2013-08-23 07:36:00,58.4,56.0,29.89,SSW,193,4.0,9.0,93,0.00,,,0.00,weatherlink.com 1.10,2013-08-23 14:36:00,
2013-08-23 07:51:00,58.6,57.0,29.89,SSE,158,2.0,11.0,93,0.00,,,0.00,weatherlink.com 1.10,2013-08-23 14:51:00,
2013-08-23 08:06:00,58.9,57.0,29.89,SW,214,8.0,12.0,92,0.00,,,0.00,weatherlink.com 1.10,2013-08-23 15:06:00,
2013-08-23 08:21:00,59.2,57.0,29.90,SSW,194,4.0,10.0,92,0.00,,,0.00,weatherlink.com 1.10,2013-08-23 15:21:00,
2013-08-23 08:36:00,59.6,57.0,29.90,SW,215,4.0,9.0,92,0.00,,,0.00,weatherlink.com 1.10,2013-08-23 15:36:00,
2013-08-23 08:51:00,60.3,57.0,29.90,SSE,154,0.0,9.0,90,0.00,,,0.00,weatherlink.com 1.10,2013-08-23 15:51:00,
2013-08-23 09:06:00,60.8,58.0,29.90,SSW,209,7.0,7.0,89,0.00,,,0.00,weatherlink.com 1.10,2013-08-23 16:06:00,
2013-08-23 09:21:00,61.2,58.0,29.90,SSW,196,2.0,9.0,88,0.00,,,0.00,weatherlink.com 1.10,2013-08-23 16:21:00,
2013-08-23 09:36:00,62.2,58.0,29.91,SSW,203,5.0,9.0,87,0.00,,,0.00,weatherlink.com 1.10,2013-08-23 16:36:00,
2013-08-23 09:51:00,62.4,58.0,29.91,West,261,2.0,8.0,86,0.00,,,0.00,weatherlink.com 1.10,2013-08-23 16:51:00,
2013-08-23 10:06:00,62.2,58.0,29.91,South,187,0.0,8.0,86,0.00,,,0.00,weatherlink.com 1.10,2013-08-23 17:06:00,
2013-08-23 10:21:00,61.6,58.0,29.91,WSW,250,0.0,9.0,88,0.00,,,0.00,weatherlink.com 1.10,2013-08-23 17:21:00,
2013-08-23 10:36:00,61.1,58.0,29.92,SSW,206,4.0,9.0,89,0.00,,,0.00,weatherlink.com 1.10,2013-08-23 17:36:00,
2013-08-23 10:51:00,61.2,58.0,29.92,WSW,256,3.0,10.0,88,0.00,,,0.00,weatherlink.com 1.10,2013-08-23 17:51:00,
2013-08-23 11:06:00,62.2,58.0,29.92,WSW,249,0.0,9.0,86,0.00,,,0.00,weatherlink.com 1.10,2013-08-23 18:06:00,
2013-08-23 11:21:00,63.9,59.0,29.92,SE,142,0.0,11.0,83,0.00,,,0.00,weatherlink.com 1.10,2013-08-23 18:21:00,
2013-08-23 11:36:00,63.8,58.0,29.91,WSW,252,6.0,10.0,82,0.00,,,0.00,weatherlink.com 1.10,2013-08-23 18:36:00,
2013-08-23 12:06:00,64.9,58.0,29.91,East,82,0.0,12.0,78,0.00,,,0.00,weatherlink.com 1.10,2013-08-23 19:06:00,
2013-08-23 12:21:00,65.2,58.0,29.91,SW,234,8.0,9.0,77,0.00,,,0.00,weatherlink.com 1.10,2013-08-23 19:21:00,
2013-08-23 12:36:00,65.3,58.0,29.91,South,179,0.0,8.0,76,0.00,,,0.00,weatherlink.com 1.10,2013-08-23 19:36:00,
2013-08-23 12:51:00,64.9,58.0,29.92,SSE,166,4.0,11.0,77,0.00,,,0.00,weatherlink.com 1.10,2013-08-23 19:51:00,
2013-08-23 13:06:00,65.1,58.0,29.92,SW,236,0.0,7.0,77,0.00,,,0.00,weatherlink.com 1.10,2013-08-23 20:06:00,
2013-08-23 13:21:00,65.4,58.0,29.92,South,191,4.0,7.0,76,0.00,,,0.00,weatherlink.com 1.10,2013-08-23 20:21:00,
2013-08-23 13:36:00,66.5,58.0,29.91,NNW,340,0.0,5.0,75,0.00,,,0.00,weatherlink.com 1.10,2013-08-23 20:36:00,
2013-08-23 13:51:00,67.0,58.0,29.91,South,179,1.0,7.0,73,0.00,,,0.00,weatherlink.com 1.10,2013-08-23 20:51:00,
2013-08-23 14:06:00,67.3,58.0,29.92,NW,311,0.0,6.0,72,0.00,,,0.00,weatherlink.com 1.10,2013-08-23 21:06:00,
2013-08-23 14:21:00,66.6,58.0,29.91,SSE,156,2.0,9.0,73,0.00,,,0.00,weatherlink.com 1.10,2013-08-23 21:21:00,
2013-08-23 14:36:00,67.9,58.0,29.91,WSW,238,1.0,6.0,71,0.00,,,0.00,weatherlink.com 1.10,2013-08-23 21:36:00,
2013-08-23 14:51:00,68.8,58.0,29.92,South,186,0.0,7.0,69,0.00,,,0.00,weatherlink.com 1.10,2013-08-23 21:51:00,
2013-08-23 15:06:00,69.5,58.0,29.91,South,186,2.0,7.0,66,0.00,,,0.00,weatherlink.com 1.10,2013-08-23 22:06:00,
2013-08-23 15:21:00,69.3,58.0,29.91,WNW,289,3.0,6.0,68,0.00,,,0.00,weatherlink.com 1.10,2013-08-23 22:21:00,
2013-08-23 15:36:00,69.8,58.0,29.91,WSW,246,0.0,5.0,67,0.00,,,0.00,weatherlink.com 1.10,2013-08-23 22:36:00,
2013-08-23 15:51:00,68.6,58.0,29.91,WNW,283,0.0,6.0,68,0.00,,,0.00,weatherlink.com 1.10,2013-08-23 22:51:00,
2013-08-23 16:06:00,67.6,57.0,29.91,South,169,0.0,5.0,70,0.00,,,0.00,weatherlink.com 1.10,2013-08-23 23:06:00,
2013-08-23 16:21:00,66.9,58.0,29.91,ESE,118,3.0,5.0,72,0.00,,,0.00,weatherlink.com 1.10,2013-08-23 23:21:00,
2013-08-23 16:36:00,67.0,58.0,29.90,SW,231,0.0,5.0,72,0.00,,,0.00,weatherlink.com 1.10,2013-08-23 23:36:00,
2013-08-23 16:52:00,67.4,58.0,29.90,South,178,3.0,5.0,72,0.00,,,0.00,weatherlink.com 1.10,2013-08-23 23:52:00,
2013-08-23 17:07:00,67.3,57.0,29.90,South,182,2.0,4.0,70,0.00,,,0.00,weatherlink.com 1.10,2013-08-24 00:07:00,
2013-08-23 17:22:00,67.5,58.0,29.89,SSW,206,0.0,5.0,71,0.00,,,0.00,weatherlink.com 1.10,2013-08-24 00:22:00,
2013-08-23 17:37:00,67.5,58.0,29.89,SSW,209,1.0,2.0,71,0.00,,,0.00,weatherlink.com 1.10,2013-08-24 00:37:00,
2013-08-23 17:52:00,67.7,58.0,29.89,South,185,0.0,3.0,70,0.00,,,0.00,weatherlink.com 1.10,2013-08-24 00:52:00,
2013-08-23 18:07:00,67.3,57.0,29.89,South,186,0.0,4.0,70,0.00,,,0.00,weatherlink.com 1.10,2013-08-24 01:07:00,
2013-08-23 18:22:00,67.5,57.0,29.88,South,186,0.0,3.0,70,0.00,,,0.00,weatherlink.com 1.10,2013-08-24 01:22:00,
2013-08-23 18:37:00,67.0,57.0,29.89,South,186,0.0,1.0,71,0.00,,,0.00,weatherlink.com 1.10,2013-08-24 01:37:00,
2013-08-23 18:52:00,67.1,57.0,29.88,SW,225,0.0,3.0,71,0.00,,,0.00,weatherlink.com 1.10,2013-08-24 01:52:00,
2013-08-23 19:07:00,67.2,57.0,29.88,SW,231,0.0,3.0,71,0.00,,,0.00,weatherlink.com 1.10,2013-08-24 02:07:00,
2013-08-23 19:22:00,66.8,57.0,29.88,SW,216,0.0,1.0,72,0.00,,,0.00,weatherlink.com 1.10,2013-08-24 02:22:00,
2013-08-23 19:37:00,66.0,58.0,29.88,SW,216,0.0,0.0,74,0.00,,,0.00,weatherlink.com 1.10,2013-08-24 02:37:00,
2013-08-23 19:52:00,65.6,58.0,29.88,SW,216,0.0,0.0,75,0.00,,,0.00,weatherlink.com 1.10,2013-08-24 02:52:00,
2013-08-23 20:07:00,65.1,57.0,29.88,SW,216,0.0,0.0,76,0.00,,,0.00,weatherlink.com 1.10,2013-08-24 03:07:00,
2013-08-23 20:22:00,64.3,57.0,29.89,SW,216,0.0,3.0,78,0.00,,,0.00,weatherlink.com 1.10,2013-08-24 03:22:00,
2013-08-23 20:37:00,63.6,57.0,29.89,South,169,0.0,4.0,78,0.00,,,0.00,weatherlink.com 1.10,2013-08-24 03:37:00,
2013-08-23 20:52:00,63.2,56.0,29.90,SSE,160,4.0,5.0,77,0.00,,,0.00,weatherlink.com 1.10,2013-08-24 03:52:00,
2013-08-23 21:07:00,63.3,56.0,29.90,SSE,168,0.0,5.0,77,0.00,,,0.00,weatherlink.com 1.10,2013-08-24 04:07:00,
2013-08-23 21:22:00,63.2,56.0,29.90,South,170,3.0,3.0,76,0.00,,,0.00,weatherlink.com 1.10,2013-08-24 04:22:00,
2013-08-23 21:37:00,63.0,56.0,29.91,South,170,2.0,4.0,77,0.00,,,0.00,weatherlink.com 1.10,2013-08-24 04:37:00,
2013-08-23 21:52:00,62.9,56.0,29.91,South,169,2.0,4.0,77,0.00,,,0.00,weatherlink.com 1.10,2013-08-24 04:52:00,
2013-08-23 22:07:00,62.3,55.0,29.91,South,179,4.0,5.0,78,0.00,,,0.00,weatherlink.com 1.10,2013-08-24 05:07:00,
2013-08-23 22:22:00,62.1,56.0,29.91,South,177,2.0,5.0,79,0.00,,,0.00,weatherlink.com 1.10,2013-08-24 05:22:00,
2013-08-23 22:37:00,62.0,55.0,29.91,SSW,204,1.0,5.0,79,0.00,,,0.00,weatherlink.com 1.10,2013-08-24 05:37:00,
2013-08-23 22:52:00,61.8,56.0,29.91,South,184,4.0,6.0,80,0.00,,,0.00,weatherlink.com 1.10,2013-08-24 05:52:00,
2013-08-23 23:07:00,61.6,56.0,29.91,SSE,163,0.0,4.0,81,0.00,,,0.00,weatherlink.com 1.10,2013-08-24 06:07:00,
2013-08-23 23:22:00,61.2,56.0,29.91,South,180,0.0,2.0,82,0.00,,,0.00,weatherlink.com 1.10,2013-08-24 06:22:00,
2013-08-23 23:37:00,60.7,56.0,29.91,South,183,2.0,4.0,83,0.00,,,0.00,weatherlink.com 1.10,2013-08-24 06:37:00,
2013-08-23 23:52:00,60.2,55.0,29.91,SSW,200,1.0,5.0,84,0.00,,,0.00,weatherlink.com 1.10,2013-08-24 06:52:00,